Time,TemperatureF,DewpointF,PressureIn,WindDirection,WindDirectionDegrees,WindSpeedMPH,WindSpeedGustMPH,Humidity,HourlyPrecipIn,Conditions,Clouds,dailyrainin,SoftwareType,DateUTC
2013-02-06 00:00:00,24.4,12.6,28.76,North,-999,-999.0,-999.0,60,-99.99,,,-99.99,VWS V14.01,2013-02-06 05:00:00,
2013-02-06 00:03:00,24.4,12.6,28.76,North,-999,-999.0,-999.0,60,-99.99,,,-99.99,VWS V14.01,2013-02-06 05:03:00,
2013-02-06 00:07:00,24.4,12.6,28.76,North,-999,-999.0,-999.0,60,-99.99,,,-99.99,VWS V14.01,2013-02-06 05:07:00,
2013-02-06 00:12:00,24.4,12.6,28.76,North,-999,-999.0,-999.0,60,-99.99,,,-99.99,VWS V14.01,2013-02-06 05:12:00,
2013-02-06 00:18:00,24.3,12.4,28.76,North,-999,-999.0,-999.0,60,-99.99,,,-99.99,VWS V14.01,2013-02-06 05:18:00,
2013-02-06 00:23:00,23.9,11.3,28.76,North,-999,-999.0,-999.0,58,-99.99,,,-99.99,VWS V14.01,2013-02-06 05:23:00,
2013-02-06 00:29:00,23.0,9.7,28.76,North,-999,-999.0,-999.0,56,-99.99,,,-99.99,VWS V14.01,2013-02-06 05:29:00,
2013-02-06 00:35:00,22.8,7.8,28.79,North,-999,-999.0,-999.0,52,-99.99,,,-99.99,VWS V14.01,2013-02-06 05:35:00,
2013-02-06 00:40:00,22.6,6.8,28.79,North,-999,-999.0,-999.0,50,-99.99,,,-99.99,VWS V14.01,2013-02-06 05:40:00,
2013-02-06 00:45:00,22.5,6.6,28.79,North,-999,-999.0,-999.0,50,-99.99,,,-99.99,VWS V14.01,2013-02-06 05:45:00,
2013-02-06 00:51:00,22.5,7.1,28.79,North,-999,-999.0,-999.0,51,-99.99,,,-99.99,VWS V14.01,2013-02-06 05:51:00,
2013-02-06 00:56:00,22.5,7.5,28.79,North,-999,-999.0,-999.0,52,-99.99,,,-99.99,VWS V14.01,2013-02-06 05:56:00,
2013-02-06 01:01:00,22.3,7.3,28.79,North,-999,-999.0,-999.0,52,-99.99,,,-99.99,VWS V14.01,2013-02-06 06:01:00,
2013-02-06 01:06:00,21.9,6.6,28.79,North,-999,-999.0,-999.0,51,-99.99,,,-99.99,VWS V14.01,2013-02-06 06:06:00,
2013-02-06 01:12:00,21.9,5.7,28.79,North,-999,-999.0,-999.0,49,-99.99,,,-99.99,VWS V14.01,2013-02-06 06:12:00,
2013-02-06 01:17:00,21.9,5.2,28.82,North,-999,-999.0,-999.0,48,-99.99,,,-99.99,VWS V14.01,2013-02-06 06:17:00,
2013-02-06 01:22:00,21.9,5.7,28.82,North,-999,-999.0,-999.0,49,-99.99,,,-99.99,VWS V14.01,2013-02-06 06:22:00,
2013-02-06 01:27:00,21.7,5.5,28.82,North,-999,-999.0,-999.0,49,-99.99,,,-99.99,VWS V14.01,2013-02-06 06:27:00,
2013-02-06 01:32:00,21.6,5.4,28.82,North,-999,-999.0,-999.0,49,-99.99,,,-99.99,VWS V14.01,2013-02-06 06:32:00,
2013-02-06 01:38:00,21.4,4.8,28.82,North,-999,-999.0,-999.0,48,-99.99,,,-99.99,VWS V14.01,2013-02-06 06:38:00,
2013-02-06 01:43:00,21.2,4.1,28.82,North,-999,-999.0,-999.0,47,-99.99,,,-99.99,VWS V14.01,2013-02-06 06:43:00,
2013-02-06 01:48:00,21.0,3.0,28.82,North,-999,-999.0,-999.0,45,-99.99,,,-99.99,VWS V14.01,2013-02-06 06:48:00,
2013-02-06 01:53:00,20.8,1.9,28.82,North,-999,-999.0,-999.0,43,-99.99,,,-99.99,VWS V14.01,2013-02-06 06:53:00,
2013-02-06 01:58:00,20.5,1.0,28.82,North,-999,-999.0,-999.0,42,-99.99,,,-99.99,VWS V14.01,2013-02-06 06:58:00,
2013-02-06 02:03:00,20.3,0.4,28.85,North,-999,-999.0,-999.0,41,-99.99,,,-99.99,VWS V14.01,2013-02-06 07:03:00,
2013-02-06 02:08:00,19.9,0.0,28.85,North,-999,-999.0,-999.0,41,-99.99,,,-99.99,VWS V14.01,2013-02-06 07:08:00,
2013-02-06 02:13:00,19.4,0.1,28.85,North,-999,-999.0,-999.0,42,-99.99,,,-99.99,VWS V14.01,2013-02-06 07:13:00,
2013-02-06 02:18:00,19.0,-0.8,28.85,North,-999,-999.0,-999.0,41,-99.99,,,-99.99,VWS V14.01,2013-02-06 07:18:00,
2013-02-06 02:24:00,18.5,-1.8,28.85,North,-999,-999.0,-999.0,40,-99.99,,,-99.99,VWS V14.01,2013-02-06 07:24:00,
2013-02-06 02:30:00,17.4,-2.8,28.85,North,-999,-999.0,-999.0,40,-99.99,,,-99.99,VWS V14.01,2013-02-06 07:30:00,
2013-02-06 02:35:00,16.7,-3.4,28.85,North,-999,-999.0,-999.0,40,-99.99,,,-99.99,VWS V14.01,2013-02-06 07:35:00,
2013-02-06 02:41:00,15.8,-4.2,28.85,North,-999,-999.0,-999.0,40,-99.99,,,-99.99,VWS V14.01,2013-02-06 07:41:00,
2013-02-06 02:46:00,15.1,-4.9,28.88,North,-999,-999.0,-999.0,40,-99.99,,,-99.99,VWS V14.01,2013-02-06 07:46:00,
2013-02-06 02:51:00,14.0,-5.9,28.88,North,-999,-999.0,-999.0,40,-99.99,,,-99.99,VWS V14.01,2013-02-06 07:51:00,
2013-02-06 02:56:00,13.8,-6.0,28.88,North,-999,-999.0,-999.0,40,-99.99,,,-99.99,VWS V14.01,2013-02-06 07:56:00,
2013-02-06 03:01:00,13.8,-6.0,28.88,North,-999,-999.0,-999.0,40,-99.99,,,-99.99,VWS V14.01,2013-02-06 08:01:00,
2013-02-06 03:06:00,14.0,-4.4,28.88,North,-999,-999.0,-999.0,43,-99.99,,,-99.99,VWS V14.01,2013-02-06 08:06:00,
2013-02-06 03:12:00,14.0,-4.4,28.88,North,-999,-999.0,-999.0,43,-99.99,,,-99.99,VWS V14.01,2013-02-06 08:12:00,
2013-02-06 03:17:00,14.4,-3.6,28.88,North,-999,-999.0,-999.0,44,-99.99,,,-99.99,VWS V14.01,2013-02-06 08:17:00,
2013-02-06 03:23:00,14.5,-3.4,28.88,North,-999,-999.0,-999.0,44,-99.99,,,-99.99,VWS V14.01,2013-02-06 08:23:00,
2013-02-06 03:29:00,14.9,-3.1,28.88,North,-999,-999.0,-999.0,44,-99.99,,,-99.99,VWS V14.01,2013-02-06 08:29:00,
2013-02-06 03:34:00,14.5,-3.4,28.88,North,-999,-999.0,-999.0,44,-99.99,,,-99.99,VWS V14.01,2013-02-06 08:34:00,
2013-02-06 03:40:00,14.5,-3.4,28.88,North,-999,-999.0,-999.0,44,-99.99,,,-99.99,VWS V14.01,2013-02-06 08:40:00,
2013-02-06 03:45:00,14.7,-3.2,28.88,North,-999,-999.0,-999.0,44,-99.99,,,-99.99,VWS V14.01,2013-02-06 08:45:00,
2013-02-06 03:51:00,14.5,-3.4,28.88,North,-999,-999.0,-999.0,44,-99.99,,,-99.99,VWS V14.01,2013-02-06 08:51:00,
2013-02-06 03:56:00,14.5,-3.4,28.88,North,-999,-999.0,-999.0,44,-99.99,,,-99.99,VWS V14.01,2013-02-06 08:56:00,
2013-02-06 04:01:00,14.7,-3.2,28.91,North,-999,-999.0,-999.0,44,-99.99,,,-99.99,VWS V14.01,2013-02-06 09:01:00,
2013-02-06 04:06:00,14.5,-3.4,28.91,North,-999,-999.0,-999.0,44,-99.99,,,-99.99,VWS V14.01,2013-02-06 09:06:00,
2013-02-06 04:11:00,14.5,-3.4,28.91,North,-999,-999.0,-999.0,44,-99.99,,,-99.99,VWS V14.01,2013-02-06 09:11:00,
2013-02-06 04:17:00,14.5,-3.4,28.91,North,-999,-999.0,-999.0,44,-99.99,,,-99.99,VWS V14.01,2013-02-06 09:17:00,
2013-02-06 04:22:00,14.2,-3.7,28.91,North,-999,-999.0,-999.0,44,-99.99,,,-99.99,VWS V14.01,2013-02-06 09:22:00,
2013-02-06 04:27:00,13.6,-3.8,28.91,North,-999,-999.0,-999.0,45,-99.99,,,-99.99,VWS V14.01,2013-02-06 09:27:00,
2013-02-06 04:33:00,12.9,-4.4,28.91,North,-999,-999.0,-999.0,45,-99.99,,,-99.99,VWS V14.01,2013-02-06 09:33:00,
2013-02-06 04:38:00,12.4,-4.9,28.91,North,-999,-999.0,-999.0,45,-99.99,,,-99.99,VWS V14.01,2013-02-06 09:38:00,
2013-02-06 04:43:00,11.8,-5.4,28.91,North,-999,-999.0,-999.0,45,-99.99,,,-99.99,VWS V14.01,2013-02-06 09:43:00,
2013-02-06 04:48:00,11.7,-5.6,28.91,North,-999,-999.0,-999.0,45,-99.99,,,-99.99,VWS V14.01,2013-02-06 09:48:00,
2013-02-06 04:54:00,11.8,-5.4,28.91,North,-999,-999.0,-999.0,45,-99.99,,,-99.99,VWS V14.01,2013-02-06 09:54:00,
2013-02-06 05:00:00,12.0,-5.2,28.91,North,-999,-999.0,-999.0,45,-99.99,,,-99.99,VWS V14.01,2013-02-06 10:00:00,
2013-02-06 05:05:00,11.7,-5.6,28.94,North,-999,-999.0,-999.0,45,-99.99,,,-99.99,VWS V14.01,2013-02-06 10:05:00,
2013-02-06 05:10:00,11.5,-5.7,28.94,North,-999,-999.0,-999.0,45,-99.99,,,-99.99,VWS V14.01,2013-02-06 10:10:00,
2013-02-06 05:16:00,11.1,-6.1,28.94,North,-999,-999.0,-999.0,45,-99.99,,,-99.99,VWS V14.01,2013-02-06 10:16:00,
2013-02-06 05:22:00,11.3,-5.9,28.94,North,-999,-999.0,-999.0,45,-99.99,,,-99.99,VWS V14.01,2013-02-06 10:22:00,
2013-02-06 05:27:00,11.1,-6.1,28.94,North,-999,-999.0,-999.0,45,-99.99,,,-99.99,VWS V14.01,2013-02-06 10:27:00,
2013-02-06 05:33:00,10.6,-6.6,28.94,North,-999,-999.0,-999.0,45,-99.99,,,-99.99,VWS V14.01,2013-02-06 10:33:00,
2013-02-06 05:39:00,10.2,-6.9,28.94,North,-999,-999.0,-999.0,45,-99.99,,,-99.99,VWS V14.01,2013-02-06 10:39:00,
2013-02-06 05:44:00,10.0,-7.1,28.94,North,-999,-999.0,-999.0,45,-99.99,,,-99.99,VWS V14.01,2013-02-06 10:44:00,
2013-02-06 05:49:00,9.9,-7.2,28.97,North,-999,-999.0,-999.0,45,-99.99,,,-99.99,VWS V14.01,2013-02-06 10:49:00,
2013-02-06 05:55:00,9.7,-7.4,28.97,North,-999,-999.0,-999.0,45,-99.99,,,-99.99,VWS V14.01,2013-02-06 10:55:00,
2013-02-06 06:01:00,9.7,-7.4,28.97,North,-999,-999.0,-999.0,45,-99.99,,,-99.99,VWS V14.01,2013-02-06 11:01:00,
2013-02-06 06:06:00,9.7,-7.4,28.97,North,-999,-999.0,-999.0,45,-99.99,,,-99.99,VWS V14.01,2013-02-06 11:06:00,
2013-02-06 06:11:00,10.0,-7.1,28.97,North,-999,-999.0,-999.0,45,-99.99,,,-99.99,VWS V14.01,2013-02-06 11:11:00,
2013-02-06 06:16:00,10.0,-7.1,28.97,North,-999,-999.0,-999.0,45,-99.99,,,-99.99,VWS V14.01,2013-02-06 11:16:00,
2013-02-06 06:22:00,10.2,-6.9,28.97,North,-999,-999.0,-999.0,45,-99.99,,,-99.99,VWS V14.01,2013-02-06 11:22:00,
2013-02-06 06:27:00,10.0,-7.1,28.97,North,-999,-999.0,-999.0,45,-99.99,,,-99.99,VWS V14.01,2013-02-06 11:27:00,
2013-02-06 06:33:00,9.7,-7.4,28.97,North,-999,-999.0,-999.0,45,-99.99,,,-99.99,VWS V14.01,2013-02-06 11:33:00,
2013-02-06 06:38:00,9.9,-7.2,28.97,North,-999,-999.0,-999.0,45,-99.99,,,-99.99,VWS V14.01,2013-02-06 11:38:00,
2013-02-06 06:44:00,9.9,-7.2,28.97,North,-999,-999.0,-999.0,45,-99.99,,,-99.99,VWS V14.01,2013-02-06 11:44:00,
2013-02-06 06:49:00,9.7,-7.4,28.97,North,-999,-999.0,-999.0,45,-99.99,,,-99.99,VWS V14.01,2013-02-06 11:49:00,
2013-02-06 06:55:00,9.5,-7.6,28.97,North,-999,-999.0,-999.0,45,-99.99,,,-99.99,VWS V14.01,2013-02-06 11:55:00,
2013-02-06 07:00:00,9.1,-7.9,28.97,North,-999,-999.0,-999.0,45,-99.99,,,-99.99,VWS V14.01,2013-02-06 12:00:00,
2013-02-06 07:06:00,8.8,-8.2,28.97,North,-999,-999.0,-999.0,45,-99.99,,,-99.99,VWS V14.01,2013-02-06 12:06:00,
2013-02-06 07:11:00,8.6,-8.4,28.97,North,-999,-999.0,-999.0,45,-99.99,,,-99.99,VWS V14.01,2013-02-06 12:11:00,
2013-02-06 07:17:00,8.6,-8.4,28.97,North,-999,-999.0,-999.0,45,-99.99,,,-99.99,VWS V14.01,2013-02-06 12:17:00,
2013-02-06 07:23:00,8.8,-8.2,28.97,North,-999,-999.0,-999.0,45,-99.99,,,-99.99,VWS V14.01,2013-02-06 12:23:00,
2013-02-06 07:28:00,8.4,-8.5,28.97,North,-999,-999.0,-999.0,45,-99.99,,,-99.99,VWS V14.01,2013-02-06 12:28:00,
2013-02-06 07:34:00,8.2,-8.7,29.00,North,-999,-999.0,-999.0,45,-99.99,,,-99.99,VWS V14.01,2013-02-06 12:34:00,
2013-02-06 07:39:00,8.8,-8.2,29.00,North,-999,-999.0,-999.0,45,-99.99,,,-99.99,VWS V14.01,2013-02-06 12:39:00,
2013-02-06 07:44:00,8.8,-8.2,29.00,North,-999,-999.0,-999.0,45,-99.99,,,-99.99,VWS V14.01,2013-02-06 12:44:00,
2013-02-06 07:50:00,8.4,-8.5,29.00,North,-999,-999.0,-999.0,45,-99.99,,,-99.99,VWS V14.01,2013-02-06 12:50:00,
2013-02-06 07:56:00,8.8,-8.2,29.00,North,-999,-999.0,-999.0,45,-99.99,,,-99.99,VWS V14.01,2013-02-06 12:56:00,
2013-02-06 08:02:00,8.8,-8.2,29.00,North,-999,-999.0,-999.0,45,-99.99,,,-99.99,VWS V14.01,2013-02-06 13:02:00,
2013-02-06 08:08:00,9.0,-8.1,29.00,North,-999,-999.0,-999.0,45,-99.99,,,-99.99,VWS V14.01,2013-02-06 13:08:00,
2013-02-06 08:13:00,8.8,-8.2,29.00,North,-999,-999.0,-999.0,45,-99.99,,,-99.99,VWS V14.01,2013-02-06 13:13:00,
2013-02-06 08:19:00,9.1,-7.9,29.03,North,-999,-999.0,-999.0,45,-99.99,,,-99.99,VWS V14.01,2013-02-06 13:19:00,
2013-02-06 08:24:00,9.3,-7.7,29.03,North,-999,-999.0,-999.0,45,-99.99,,,-99.99,VWS V14.01,2013-02-06 13:24:00,
2013-02-06 08:29:00,9.7,-7.4,29.03,North,-999,-999.0,-999.0,45,-99.99,,,-99.99,VWS V14.01,2013-02-06 13:29:00,
2013-02-06 08:35:00,9.9,-7.2,29.03,North,-999,-999.0,-999.0,45,-99.99,,,-99.99,VWS V14.01,2013-02-06 13:35:00,
2013-02-06 08:41:00,10.2,-6.9,29.03,North,-999,-999.0,-999.0,45,-99.99,,,-99.99,VWS V14.01,2013-02-06 13:41:00,
2013-02-06 08:46:00,11.1,-6.1,29.03,North,-999,-999.0,-999.0,45,-99.99,,,-99.99,VWS V14.01,2013-02-06 13:46:00,
2013-02-06 08:52:00,12.6,-4.7,29.03,North,-999,-999.0,-999.0,45,-99.99,,,-99.99,VWS V14.01,2013-02-06 13:52:00,
2013-02-06 08:58:00,13.6,-3.8,29.03,North,-999,-999.0,-999.0,45,-99.99,,,-99.99,VWS V14.01,2013-02-06 13:58:00,
2013-02-06 09:03:00,14.4,-0.4,29.03,North,-999,-999.0,-999.0,51,-99.99,,,-99.99,VWS V14.01,2013-02-06 14:03:00,
2013-02-06 09:08:00,15.1,0.6,29.03,North,-999,-999.0,-999.0,52,-99.99,,,-99.99,VWS V14.01,2013-02-06 14:08:00,
2013-02-06 09:13:00,15.8,1.7,29.03,North,-999,-999.0,-999.0,53,-99.99,,,-99.99,VWS V14.01,2013-02-06 14:13:00,
2013-02-06 09:18:00,16.3,2.2,29.03,North,-999,-999.0,-999.0,53,-99.99,,,-99.99,VWS V14.01,2013-02-06 14:18:00,
2013-02-06 09:23:00,16.7,2.1,29.03,North,-999,-999.0,-999.0,52,-99.99,,,-99.99,VWS V14.01,2013-02-06 14:23:00,
2013-02-06 09:28:00,17.1,1.6,29.03,North,-999,-999.0,-999.0,50,-99.99,,,-99.99,VWS V14.01,2013-02-06 14:28:00,
2013-02-06 09:33:00,17.4,1.1,29.06,North,-999,-999.0,-999.0,48,-99.99,,,-99.99,VWS V14.01,2013-02-06 14:33:00,
2013-02-06 09:38:00,17.6,0.8,29.06,North,-999,-999.0,-999.0,47,-99.99,,,-99.99,VWS V14.01,2013-02-06 14:38:00,
2013-02-06 09:44:00,18.0,0.7,29.06,North,-999,-999.0,-999.0,46,-99.99,,,-99.99,VWS V14.01,2013-02-06 14:44:00,
2013-02-06 09:50:00,18.1,0.4,29.06,North,-999,-999.0,-999.0,45,-99.99,,,-99.99,VWS V14.01,2013-02-06 14:50:00,
2013-02-06 09:55:00,18.3,0.1,29.06,North,-999,-999.0,-999.0,44,-99.99,,,-99.99,VWS V14.01,2013-02-06 14:55:00,
2013-02-06 10:01:00,18.5,0.2,29.06,North,-999,-999.0,-999.0,44,-99.99,,,-99.99,VWS V14.01,2013-02-06 15:01:00,
2013-02-06 10:07:00,18.9,0.1,29.06,North,-999,-999.0,-999.0,43,-99.99,,,-99.99,VWS V14.01,2013-02-06 15:07:00,
2013-02-06 10:12:00,18.9,0.1,29.06,North,-999,-999.0,-999.0,43,-99.99,,,-99.99,VWS V14.01,2013-02-06 15:12:00,
2013-02-06 10:17:00,19.2,0.4,29.06,North,-999,-999.0,-999.0,43,-99.99,,,-99.99,VWS V14.01,2013-02-06 15:17:00,
2013-02-06 10:23:00,19.4,0.1,29.06,North,-999,-999.0,-999.0,42,-99.99,,,-99.99,VWS V14.01,2013-02-06 15:23:00,
2013-02-06 10:28:00,19.2,-2.2,29.06,North,-999,-999.0,-999.0,38,-99.99,,,-99.99,VWS V14.01,2013-02-06 15:28:00,
2013-02-06 10:33:00,19.6,-4.2,29.06,North,-999,-999.0,-999.0,34,-99.99,,,-99.99,VWS V14.01,2013-02-06 15:33:00,
2013-02-06 10:38:00,19.9,-3.9,29.06,North,-999,-999.0,-999.0,34,-99.99,,,-99.99,VWS V14.01,2013-02-06 15:38:00,
2013-02-06 10:44:00,20.3,-3.6,29.06,North,-999,-999.0,-999.0,34,-99.99,,,-99.99,VWS V14.01,2013-02-06 15:44:00,
2013-02-06 10:49:00,20.5,-3.4,29.06,North,-999,-999.0,-999.0,34,-99.99,,,-99.99,VWS V14.01,2013-02-06 15:49:00,
2013-02-06 10:55:00,20.8,-3.1,29.06,North,-999,-999.0,-999.0,34,-99.99,,,-99.99,VWS V14.01,2013-02-06 15:55:00,
2013-02-06 11:01:00,21.4,-3.2,29.06,North,-999,-999.0,-999.0,33,-99.99,,,-99.99,VWS V14.01,2013-02-06 16:01:00,
2013-02-06 11:06:00,21.7,-2.9,29.06,North,-999,-999.0,-999.0,33,-99.99,,,-99.99,VWS V14.01,2013-02-06 16:06:00,
2013-02-06 11:11:00,22.1,-2.6,29.06,North,-999,-999.0,-999.0,33,-99.99,,,-99.99,VWS V14.01,2013-02-06 16:11:00,
2013-02-06 11:17:00,22.5,-2.9,29.06,North,-999,-999.0,-999.0,32,-99.99,,,-99.99,VWS V14.01,2013-02-06 16:17:00,
2013-02-06 11:22:00,22.5,-4.3,29.06,North,-999,-999.0,-999.0,30,-99.99,,,-99.99,VWS V14.01,2013-02-06 16:22:00,
2013-02-06 11:27:00,22.8,-4.0,29.06,North,-999,-999.0,-999.0,30,-99.99,,,-99.99,VWS V14.01,2013-02-06 16:27:00,
2013-02-06 11:33:00,23.0,-6.0,29.06,North,-999,-999.0,-999.0,27,-99.99,,,-99.99,VWS V14.01,2013-02-06 16:33:00,
2013-02-06 11:38:00,23.2,-5.8,29.06,North,-999,-999.0,-999.0,27,-99.99,,,-99.99,VWS V14.01,2013-02-06 16:38:00,
2013-02-06 11:43:00,23.2,-5.8,29.06,North,-999,-999.0,-999.0,27,-99.99,,,-99.99,VWS V14.01,2013-02-06 16:43:00,
2013-02-06 11:49:00,23.5,-7.9,29.06,North,-999,-999.0,-999.0,24,-99.99,,,-99.99,VWS V14.01,2013-02-06 16:49:00,
2013-02-06 11:54:00,23.7,-7.8,29.06,North,-999,-999.0,-999.0,24,-99.99,,,-99.99,VWS V14.01,2013-02-06 16:54:00,
2013-02-06 11:59:00,24.1,-7.5,29.06,North,-999,-999.0,-999.0,24,-99.99,,,-99.99,VWS V14.01,2013-02-06 16:59:00,
2013-02-06 12:05:00,24.3,-7.3,29.09,North,-999,-999.0,-999.0,24,-99.99,,,-99.99,VWS V14.01,2013-02-06 17:05:00,
2013-02-06 12:11:00,24.6,-7.0,29.09,North,-999,-999.0,-999.0,24,-99.99,,,-99.99,VWS V14.01,2013-02-06 17:11:00,
2013-02-06 12:17:00,24.8,-6.9,29.06,North,-999,-999.0,-999.0,24,-99.99,,,-99.99,VWS V14.01,2013-02-06 17:17:00,
2013-02-06 12:22:00,25.2,-6.6,29.06,North,-999,-999.0,-999.0,24,-99.99,,,-99.99,VWS V14.01,2013-02-06 17:22:00,
2013-02-06 12:27:00,25.3,-9.1,29.06,North,-999,-999.0,-999.0,21,-99.99,,,-99.99,VWS V14.01,2013-02-06 17:27:00,
2013-02-06 12:33:00,25.5,-9.0,29.06,North,-999,-999.0,-999.0,21,-99.99,,,-99.99,VWS V14.01,2013-02-06 17:33:00,
2013-02-06 12:38:00,25.5,-9.0,29.06,North,-999,-999.0,-999.0,21,-99.99,,,-99.99,VWS V14.01,2013-02-06 17:38:00,
2013-02-06 12:43:00,25.3,-9.1,29.06,North,-999,-999.0,-999.0,21,-99.99,,,-99.99,VWS V14.01,2013-02-06 17:43:00,
2013-02-06 12:48:00,25.7,-8.8,29.06,North,-999,-999.0,-999.0,21,-99.99,,,-99.99,VWS V14.01,2013-02-06 17:48:00,
2013-02-06 12:54:00,25.9,-8.7,29.06,North,-999,-999.0,-999.0,21,-99.99,,,-99.99,VWS V14.01,2013-02-06 17:54:00,
2013-02-06 13:00:00,26.1,-8.5,29.06,North,-999,-999.0,-999.0,21,-99.99,,,-99.99,VWS V14.01,2013-02-06 18:00:00,
2013-02-06 13:05:00,26.2,-8.4,29.06,North,-999,-999.0,-999.0,21,-99.99,,,-99.99,VWS V14.01,2013-02-06 18:05:00,
2013-02-06 13:11:00,26.6,-8.1,29.06,North,-999,-999.0,-999.0,21,-99.99,,,-99.99,VWS V14.01,2013-02-06 18:11:00,
2013-02-06 13:16:00,26.8,-7.9,29.09,North,-999,-999.0,-999.0,21,-99.99,,,-99.99,VWS V14.01,2013-02-06 18:16:00,
2013-02-06 13:21:00,26.6,-8.1,29.09,North,-999,-999.0,-999.0,21,-99.99,,,-99.99,VWS V14.01,2013-02-06 18:21:00,
2013-02-06 13:26:00,26.6,-8.1,29.09,North,-999,-999.0,-999.0,21,-99.99,,,-99.99,VWS V14.01,2013-02-06 18:26:00,
2013-02-06 13:31:00,26.6,-8.1,29.06,North,-999,-999.0,-999.0,21,-99.99,,,-99.99,VWS V14.01,2013-02-06 18:31:00,
2013-02-06 13:36:00,27.0,-7.8,29.06,North,-999,-999.0,-999.0,21,-99.99,,,-99.99,VWS V14.01,2013-02-06 18:36:00,
2013-02-06 13:41:00,27.0,-7.8,29.06,North,-999,-999.0,-999.0,21,-99.99,,,-99.99,VWS V14.01,2013-02-06 18:41:00,
2013-02-06 13:46:00,27.3,-7.4,29.06,North,-999,-999.0,-999.0,21,-99.99,,,-99.99,VWS V14.01,2013-02-06 18:46:00,
2013-02-06 13:51:00,27.5,-7.3,29.06,North,-999,-999.0,-999.0,21,-99.99,,,-99.99,VWS V14.01,2013-02-06 18:51:00,
2013-02-06 13:57:00,27.5,-7.3,29.06,North,-999,-999.0,-999.0,21,-99.99,,,-99.99,VWS V14.01,2013-02-06 18:57:00,
2013-02-06 14:02:00,27.9,-7.0,29.06,North,-999,-999.0,-999.0,21,-99.99,,,-99.99,VWS V14.01,2013-02-06 19:02:00,
2013-02-06 14:07:00,27.5,-7.3,29.06,North,-999,-999.0,-999.0,21,-99.99,,,-99.99,VWS V14.01,2013-02-06 19:07:00,
2013-02-06 14:12:00,27.5,-7.3,29.06,North,-999,-999.0,-999.0,21,-99.99,,,-99.99,VWS V14.01,2013-02-06 19:12:00,
2013-02-06 14:18:00,27.9,-7.0,29.06,North,-999,-999.0,-999.0,21,-99.99,,,-99.99,VWS V14.01,2013-02-06 19:18:00,
2013-02-06 14:23:00,27.9,-7.0,29.06,North,-999,-999.0,-999.0,21,-99.99,,,-99.99,VWS V14.01,2013-02-06 19:23:00,
2013-02-06 14:28:00,28.2,-6.7,29.06,North,-999,-999.0,-999.0,21,-99.99,,,-99.99,VWS V14.01,2013-02-06 19:28:00,
2013-02-06 14:33:00,28.4,-6.5,29.06,North,-999,-999.0,-999.0,21,-99.99,,,-99.99,VWS V14.01,2013-02-06 19:33:00,
2013-02-06 14:39:00,28.6,-7.4,29.06,North,-999,-999.0,-999.0,20,-99.99,,,-99.99,VWS V14.01,2013-02-06 19:39:00,
2013-02-06 14:45:00,28.6,-7.4,29.06,North,-999,-999.0,-999.0,20,-99.99,,,-99.99,VWS V14.01,2013-02-06 19:45:00,
2013-02-06 14:50:00,28.6,-7.4,29.06,North,-999,-999.0,-999.0,20,-99.99,,,-99.99,VWS V14.01,2013-02-06 19:50:00,
2013-02-06 14:56:00,28.6,-7.4,29.06,North,-999,-999.0,-999.0,20,-99.99,,,-99.99,VWS V14.01,2013-02-06 19:56:00,
2013-02-06 15:02:00,28.8,-7.2,29.06,North,-999,-999.0,-999.0,20,-99.99,,,-99.99,VWS V14.01,2013-02-06 20:02:00,
2013-02-06 15:08:00,28.9,-7.1,29.06,North,-999,-999.0,-999.0,20,-99.99,,,-99.99,VWS V14.01,2013-02-06 20:08:00,
2013-02-06 15:13:00,29.1,-6.9,29.06,North,-999,-999.0,-999.0,20,-99.99,,,-99.99,VWS V14.01,2013-02-06 20:13:00,
2013-02-06 15:18:00,28.9,-7.1,29.06,North,-999,-999.0,-999.0,20,-99.99,,,-99.99,VWS V14.01,2013-02-06 20:18:00,
2013-02-06 15:24:00,29.1,-6.9,29.06,North,-999,-999.0,-999.0,20,-99.99,,,-99.99,VWS V14.01,2013-02-06 20:24:00,
2013-02-06 15:30:00,29.3,-6.8,29.06,North,-999,-999.0,-999.0,20,-99.99,,,-99.99,VWS V14.01,2013-02-06 20:30:00,
2013-02-06 15:35:00,29.3,-6.8,29.06,North,-999,-999.0,-999.0,20,-99.99,,,-99.99,VWS V14.01,2013-02-06 20:35:00,
2013-02-06 15:40:00,29.5,-6.6,29.06,North,-999,-999.0,-999.0,20,-99.99,,,-99.99,VWS V14.01,2013-02-06 20:40:00,
2013-02-06 15:45:00,29.5,-6.6,29.06,North,-999,-999.0,-999.0,20,-99.99,,,-99.99,VWS V14.01,2013-02-06 20:45:00,
2013-02-06 15:50:00,29.5,-6.6,29.06,North,-999,-999.0,-999.0,20,-99.99,,,-99.99,VWS V14.01,2013-02-06 20:50:00,
2013-02-06 15:55:00,29.1,-6.9,29.06,North,-999,-999.0,-999.0,20,-99.99,,,-99.99,VWS V14.01,2013-02-06 20:55:00,
2013-02-06 16:00:00,29.1,-6.9,29.03,North,-999,-999.0,-999.0,20,-99.99,,,-99.99,VWS V14.01,2013-02-06 21:00:00,
2013-02-06 16:06:00,29.1,-6.9,29.03,North,-999,-999.0,-999.0,20,-99.99,,,-99.99,VWS V14.01,2013-02-06 21:06:00,
2013-02-06 16:12:00,29.3,-6.8,29.03,North,-999,-999.0,-999.0,20,-99.99,,,-99.99,VWS V14.01,2013-02-06 21:12:00,
2013-02-06 16:18:00,29.1,-6.9,29.03,North,-999,-999.0,-999.0,20,-99.99,,,-99.99,VWS V14.01,2013-02-06 21:18:00,
2013-02-06 16:23:00,29.1,-6.9,29.03,North,-999,-999.0,-999.0,20,-99.99,,,-99.99,VWS V14.01,2013-02-06 21:23:00,
2013-02-06 16:28:00,28.9,-7.1,29.03,North,-999,-999.0,-999.0,20,-99.99,,,-99.99,VWS V14.01,2013-02-06 21:28:00,
2013-02-06 16:33:00,28.9,-7.1,29.03,North,-999,-999.0,-999.0,20,-99.99,,,-99.99,VWS V14.01,2013-02-06 21:33:00,
2013-02-06 16:38:00,28.6,-7.4,29.03,North,-999,-999.0,-999.0,20,-99.99,,,-99.99,VWS V14.01,2013-02-06 21:38:00,
2013-02-06 16:44:00,28.6,-7.4,29.03,North,-999,-999.0,-999.0,20,-99.99,,,-99.99,VWS V14.01,2013-02-06 21:44:00,
2013-02-06 16:49:00,28.8,-7.2,29.06,North,-999,-999.0,-999.0,20,-99.99,,,-99.99,VWS V14.01,2013-02-06 21:49:00,
2013-02-06 16:55:00,28.6,-7.4,29.06,North,-999,-999.0,-999.0,20,-99.99,,,-99.99,VWS V14.01,2013-02-06 21:55:00,
2013-02-06 17:00:00,28.4,-6.5,29.06,North,-999,-999.0,-999.0,21,-99.99,,,-99.99,VWS V14.01,2013-02-06 22:00:00,
2013-02-06 17:05:00,28.2,-6.7,29.06,North,-999,-999.0,-999.0,21,-99.99,,,-99.99,VWS V14.01,2013-02-06 22:05:00,
2013-02-06 17:10:00,28.0,-6.8,29.06,North,-999,-999.0,-999.0,21,-99.99,,,-99.99,VWS V14.01,2013-02-06 22:10:00,
2013-02-06 17:15:00,27.9,-7.0,29.06,North,-999,-999.0,-999.0,21,-99.99,,,-99.99,VWS V14.01,2013-02-06 22:15:00,
2013-02-06 17:21:00,27.7,-7.2,29.06,North,-999,-999.0,-999.0,21,-99.99,,,-99.99,VWS V14.01,2013-02-06 22:21:00,
2013-02-06 17:26:00,27.3,-7.4,29.06,North,-999,-999.0,-999.0,21,-99.99,,,-99.99,VWS V14.01,2013-02-06 22:26:00,
2013-02-06 17:31:00,27.1,-7.6,29.06,North,-999,-999.0,-999.0,21,-99.99,,,-99.99,VWS V14.01,2013-02-06 22:31:00,
2013-02-06 17:37:00,27.0,-7.8,29.06,North,-999,-999.0,-999.0,21,-99.99,,,-99.99,VWS V14.01,2013-02-06 22:37:00,
2013-02-06 17:43:00,26.6,-8.1,29.06,North,-999,-999.0,-999.0,21,-99.99,,,-99.99,VWS V14.01,2013-02-06 22:43:00,
2013-02-06 17:48:00,26.4,-8.2,29.09,North,-999,-999.0,-999.0,21,-99.99,,,-99.99,VWS V14.01,2013-02-06 22:48:00,
2013-02-06 17:53:00,26.1,-8.5,29.09,North,-999,-999.0,-999.0,21,-99.99,,,-99.99,VWS V14.01,2013-02-06 22:53:00,
2013-02-06 17:58:00,26.1,-8.5,29.09,North,-999,-999.0,-999.0,21,-99.99,,,-99.99,VWS V14.01,2013-02-06 22:58:00,
2013-02-06 18:04:00,25.7,-8.8,29.09,North,-999,-999.0,-999.0,21,-99.99,,,-99.99,VWS V14.01,2013-02-06 23:04:00,
2013-02-06 18:09:00,25.5,-9.0,29.09,North,-999,-999.0,-999.0,21,-99.99,,,-99.99,VWS V14.01,2013-02-06 23:09:00,
2013-02-06 18:15:00,25.3,-9.1,29.09,North,-999,-999.0,-999.0,21,-99.99,,,-99.99,VWS V14.01,2013-02-06 23:15:00,
2013-02-06 18:21:00,25.0,-9.4,29.09,North,-999,-999.0,-999.0,21,-99.99,,,-99.99,VWS V14.01,2013-02-06 23:21:00,
2013-02-06 18:26:00,24.8,-8.6,29.09,North,-999,-999.0,-999.0,22,-99.99,,,-99.99,VWS V14.01,2013-02-06 23:26:00,
2013-02-06 18:31:00,24.6,-8.8,29.09,North,-999,-999.0,-999.0,22,-99.99,,,-99.99,VWS V14.01,2013-02-06 23:31:00,
2013-02-06 18:37:00,24.4,-8.9,29.09,North,-999,-999.0,-999.0,22,-99.99,,,-99.99,VWS V14.01,2013-02-06 23:37:00,
2013-02-06 18:42:00,24.3,-9.1,29.09,North,-999,-999.0,-999.0,22,-99.99,,,-99.99,VWS V14.01,2013-02-06 23:42:00,
2013-02-06 18:47:00,24.3,-9.1,29.09,North,-999,-999.0,-999.0,22,-99.99,,,-99.99,VWS V14.01,2013-02-06 23:47:00,
2013-02-06 18:52:00,24.3,-9.1,29.09,North,-999,-999.0,-999.0,22,-99.99,,,-99.99,VWS V14.01,2013-02-06 23:52:00,
2013-02-06 18:58:00,24.1,-9.2,29.09,North,-999,-999.0,-999.0,22,-99.99,,,-99.99,VWS V14.01,2013-02-06 23:58:00,
2013-02-06 19:03:00,23.9,-9.4,29.09,North,-999,-999.0,-999.0,22,-99.99,,,-99.99,VWS V14.01,2013-02-07 00:03:00,
2013-02-06 19:09:00,23.9,-9.4,29.09,North,-999,-999.0,-999.0,22,-99.99,,,-99.99,VWS V14.01,2013-02-07 00:09:00,
2013-02-06 19:14:00,23.7,-7.8,29.09,North,-999,-999.0,-999.0,24,-99.99,,,-99.99,VWS V14.01,2013-02-07 00:14:00,
2013-02-06 19:19:00,23.7,-7.8,29.09,North,-999,-999.0,-999.0,24,-99.99,,,-99.99,VWS V14.01,2013-02-07 00:19:00,
2013-02-06 19:25:00,23.5,-7.9,29.09,North,-999,-999.0,-999.0,24,-99.99,,,-99.99,VWS V14.01,2013-02-07 00:25:00,
2013-02-06 19:31:00,23.5,-7.9,29.09,North,-999,-999.0,-999.0,24,-99.99,,,-99.99,VWS V14.01,2013-02-07 00:31:00,
2013-02-06 19:37:00,23.4,-8.1,29.09,North,-999,-999.0,-999.0,24,-99.99,,,-99.99,VWS V14.01,2013-02-07 00:37:00,
2013-02-06 19:43:00,23.4,-8.1,29.09,North,-999,-999.0,-999.0,24,-99.99,,,-99.99,VWS V14.01,2013-02-07 00:43:00,
2013-02-06 19:48:00,23.2,-8.2,29.09,North,-999,-999.0,-999.0,24,-99.99,,,-99.99,VWS V14.01,2013-02-07 00:48:00,
2013-02-06 19:54:00,23.0,-6.0,29.09,North,-999,-999.0,-999.0,27,-99.99,,,-99.99,VWS V14.01,2013-02-07 00:54:00,
2013-02-06 19:59:00,23.2,-5.8,29.09,North,-999,-999.0,-999.0,27,-99.99,,,-99.99,VWS V14.01,2013-02-07 00:59:00,
2013-02-06 20:04:00,23.2,-5.8,29.09,North,-999,-999.0,-999.0,27,-99.99,,,-99.99,VWS V14.01,2013-02-07 01:04:00,
2013-02-06 20:10:00,23.4,-5.7,29.09,North,-999,-999.0,-999.0,27,-99.99,,,-99.99,VWS V14.01,2013-02-07 01:10:00,
2013-02-06 20:16:00,23.2,-5.8,29.09,North,-999,-999.0,-999.0,27,-99.99,,,-99.99,VWS V14.01,2013-02-07 01:16:00,
2013-02-06 20:21:00,23.2,-5.8,29.09,North,-999,-999.0,-999.0,27,-99.99,,,-99.99,VWS V14.01,2013-02-07 01:21:00,
2013-02-06 20:26:00,23.2,-5.8,29.09,North,-999,-999.0,-999.0,27,-99.99,,,-99.99,VWS V14.01,2013-02-07 01:26:00,
2013-02-06 20:31:00,23.0,-7.6,29.09,North,-999,-999.0,-999.0,25,-99.99,,,-99.99,VWS V14.01,2013-02-07 01:31:00,
2013-02-06 20:36:00,23.0,-7.6,29.09,North,-999,-999.0,-999.0,25,-99.99,,,-99.99,VWS V14.01,2013-02-07 01:36:00,
2013-02-06 20:41:00,22.8,-7.7,29.09,North,-999,-999.0,-999.0,25,-99.99,,,-99.99,VWS V14.01,2013-02-07 01:41:00,
2013-02-06 20:46:00,22.6,-7.9,29.09,North,-999,-999.0,-999.0,25,-99.99,,,-99.99,VWS V14.01,2013-02-07 01:46:00,
2013-02-06 20:51:00,22.6,-7.9,29.09,North,-999,-999.0,-999.0,25,-99.99,,,-99.99,VWS V14.01,2013-02-07 01:51:00,
2013-02-06 20:57:00,22.6,-7.9,29.09,North,-999,-999.0,-999.0,25,-99.99,,,-99.99,VWS V14.01,2013-02-07 01:57:00,
2013-02-06 21:03:00,22.5,-8.0,29.09,North,-999,-999.0,-999.0,25,-99.99,,,-99.99,VWS V14.01,2013-02-07 02:03:00,
2013-02-06 21:09:00,22.3,-8.2,29.09,North,-999,-999.0,-999.0,25,-99.99,,,-99.99,VWS V14.01,2013-02-07 02:09:00,
2013-02-06 21:14:00,22.3,-8.2,29.09,North,-999,-999.0,-999.0,25,-99.99,,,-99.99,VWS V14.01,2013-02-07 02:14:00,
2013-02-06 21:19:00,22.3,-8.2,29.09,North,-999,-999.0,-999.0,25,-99.99,,,-99.99,VWS V14.01,2013-02-07 02:19:00,
2013-02-06 21:24:00,22.3,-8.2,29.09,North,-999,-999.0,-999.0,25,-99.99,,,-99.99,VWS V14.01,2013-02-07 02:24:00,
2013-02-06 21:29:00,22.3,-8.2,29.09,North,-999,-999.0,-999.0,25,-99.99,,,-99.99,VWS V14.01,2013-02-07 02:29:00,
2013-02-06 21:34:00,22.3,-8.2,29.06,North,-999,-999.0,-999.0,25,-99.99,,,-99.99,VWS V14.01,2013-02-07 02:34:00,
2013-02-06 21:39:00,22.3,-8.2,29.06,North,-999,-999.0,-999.0,25,-99.99,,,-99.99,VWS V14.01,2013-02-07 02:39:00,
2013-02-06 21:44:00,22.3,-8.2,29.06,North,-999,-999.0,-999.0,25,-99.99,,,-99.99,VWS V14.01,2013-02-07 02:44:00,
2013-02-06 21:50:00,22.1,-6.8,29.06,North,-999,-999.0,-999.0,27,-99.99,,,-99.99,VWS V14.01,2013-02-07 02:50:00,
2013-02-06 21:55:00,22.3,-6.6,29.06,North,-999,-999.0,-999.0,27,-99.99,,,-99.99,VWS V14.01,2013-02-07 02:55:00,
2013-02-06 22:01:00,22.5,-6.5,29.06,North,-999,-999.0,-999.0,27,-99.99,,,-99.99,VWS V14.01,2013-02-07 03:01:00,
2013-02-06 22:07:00,22.6,-4.1,29.06,North,-999,-999.0,-999.0,30,-99.99,,,-99.99,VWS V14.01,2013-02-07 03:07:00,
2013-02-06 22:12:00,22.8,-4.0,29.06,North,-999,-999.0,-999.0,30,-99.99,,,-99.99,VWS V14.01,2013-02-07 03:12:00,
2013-02-06 22:17:00,22.8,-4.0,29.06,North,-999,-999.0,-999.0,30,-99.99,,,-99.99,VWS V14.01,2013-02-07 03:17:00,
2013-02-06 22:22:00,22.8,-4.0,29.06,North,-999,-999.0,-999.0,30,-99.99,,,-99.99,VWS V14.01,2013-02-07 03:22:00,
2013-02-06 22:27:00,22.8,-4.0,29.06,North,-999,-999.0,-999.0,30,-99.99,,,-99.99,VWS V14.01,2013-02-07 03:27:00,
2013-02-06 22:32:00,22.8,-4.0,29.06,North,-999,-999.0,-999.0,30,-99.99,,,-99.99,VWS V14.01,2013-02-07 03:32:00,
2013-02-06 22:38:00,23.0,-2.5,29.06,North,-999,-999.0,-999.0,32,-99.99,,,-99.99,VWS V14.01,2013-02-07 03:38:00,
2013-02-06 22:44:00,23.0,-2.5,29.06,North,-999,-999.0,-999.0,32,-99.99,,,-99.99,VWS V14.01,2013-02-07 03:44:00,
2013-02-06 22:49:00,23.0,-2.5,29.06,North,-999,-999.0,-999.0,32,-99.99,,,-99.99,VWS V14.01,2013-02-07 03:49:00,
2013-02-06 22:54:00,23.0,-2.5,29.06,North,-999,-999.0,-999.0,32,-99.99,,,-99.99,VWS V14.01,2013-02-07 03:54:00,
2013-02-06 22:59:00,23.2,-2.3,29.06,North,-999,-999.0,-999.0,32,-99.99,,,-99.99,VWS V14.01,2013-02-07 03:59:00,
2013-02-06 23:04:00,23.2,-2.3,29.06,North,-999,-999.0,-999.0,32,-99.99,,,-99.99,VWS V14.01,2013-02-07 04:04:00,
2013-02-06 23:10:00,23.2,-2.3,29.06,North,-999,-999.0,-999.0,32,-99.99,,,-99.99,VWS V14.01,2013-02-07 04:10:00,
2013-02-06 23:15:00,23.4,-2.1,29.06,North,-999,-999.0,-999.0,32,-99.99,,,-99.99,VWS V14.01,2013-02-07 04:15:00,
2013-02-06 23:20:00,23.4,-2.1,29.06,North,-999,-999.0,-999.0,32,-99.99,,,-99.99,VWS V14.01,2013-02-07 04:20:00,
2013-02-06 23:26:00,23.4,-2.1,29.06,North,-999,-999.0,-999.0,32,-99.99,,,-99.99,VWS V14.01,2013-02-07 04:26:00,
2013-02-06 23:32:00,23.5,-2.0,29.06,North,-999,-999.0,-999.0,32,-99.99,,,-99.99,VWS V14.01,2013-02-07 04:32:00,
2013-02-06 23:38:00,23.5,-2.0,29.06,North,-999,-999.0,-999.0,32,-99.99,,,-99.99,VWS V14.01,2013-02-07 04:38:00,
2013-02-06 23:43:00,23.5,-2.0,29.06,North,-999,-999.0,-999.0,32,-99.99,,,-99.99,VWS V14.01,2013-02-07 04:43:00,
2013-02-06 23:48:00,23.5,-2.0,29.06,North,-999,-999.0,-999.0,32,-99.99,,,-99.99,VWS V14.01,2013-02-07 04:48:00,
2013-02-06 23:53:00,23.5,-2.0,29.06,North,-999,-999.0,-999.0,32,-99.99,,,-99.99,VWS V14.01,2013-02-07 04:53:00,
2013-02-06 23:59:00,23.7,-1.8,29.06,North,-999,-999.0,-999.0,32,-99.99,,,-99.99,VWS V14.01,2013-02-07 04:59:00,